• In Deutschland
  • Länderverzeichnis
  • Für 7 Tage
  • Wassertemperatur
  • Satellitenkarten
  • Wetterkarte
  • Widgets
  • user-avatar
    Anmelden

    Stündliche Wetter Aurich

    Heute, 20 Oktober, Freitag

    Zeit Temperatur Niederschläge Wind Luftdruck Luftfeuchtigkeit
    00:00 +14°C° 0 mm 5 m/S 756 mmHg 86%
    01:00 +14°C° 0 mm 5 m/S 755 mmHg 84%
    02:00 +14°C° 0 mm 6 m/S 755 mmHg 81%
    03:00 +15°C° 0 mm 6 m/S 755 mmHg 78%
    04:00 +15°C° 0,4 mm 6 m/S 755 mmHg 80%
    05:00 +14°C° 0,4 mm 6 m/S 755 mmHg 81%
    06:00 +14°C° 0,4 mm 7 m/S 755 mmHg 82%
    07:00 +14°C° 0,2 mm 7 m/S 755 mmHg 83%
    08:00 +14°C° 0,2 mm 7 m/S 755 mmHg 85%
    09:00 +15°C° 0,2 mm 8 m/S 756 mmHg 86%
    10:00 +15°C° 0,3 mm 8 m/S 756 mmHg 83%
    11:00 +15°C° 0,3 mm 8 m/S 756 mmHg 81%
    12:00 +16°C° 0,3 mm 8 m/S 756 mmHg 78%
    13:00 +15°C° 0,1 mm 7 m/S 756 mmHg 77%
    14:00 +15°C° 0,1 mm 7 m/S 756 mmHg 76%
    15:00 +15°C° 0,1 mm 7 m/S 756 mmHg 76%
    16:00 +14°C° 0,2 mm 7 m/S 756 mmHg 79%
    17:00 +12°C° 0,2 mm 7 m/S 756 mmHg 82%
    18:00 +11°C° 0,2 mm 8 m/S 756 mmHg 85%
    19:00 +11°C° 0,1 mm 7 m/S 757 mmHg 85%
    20:00 +11°C° 0,1 mm 7 m/S 757 mmHg 85%
    21:00 +11°C° 0,1 mm 7 m/S 757 mmHg 85%
    22:00 +11°C° 0,1 mm 7 m/S 758 mmHg 85%
    23:00 +11°C° 0,1 mm 7 m/S 758 mmHg 84%

    Morgen, 21 Oktober, Samstag

    Zeit Temperatur Niederschläge Wind Luftdruck Luftfeuchtigkeit
    00:00 +11°C° 0,1 mm 6 m/S 758 mmHg 84%
    01:00 +10°C° 0 mm 6 m/S 758 mmHg 85%
    02:00 +9°C° 0 mm 6 m/S 758 mmHg 86%
    03:00 +8°C° 0 mm 5 m/S 758 mmHg 87%
    04:00 +9°C° 0 mm 6 m/S 757 mmHg 86%
    05:00 +9°C° 0 mm 6 m/S 757 mmHg 84%
    06:00 +10°C° 0 mm 6 m/S 757 mmHg 83%
    07:00 +10°C° 0,1 mm 7 m/S 757 mmHg 81%
    08:00 +11°C° 0,1 mm 7 m/S 756 mmHg 80%
    09:00 +12°C° 0,1 mm 8 m/S 756 mmHg 79%
    10:00 +12°C° 0,9 mm 8 m/S 756 mmHg 83%
    11:00 +12°C° 0,9 mm 7 m/S 756 mmHg 87%
    12:00 +12°C° 0,9 mm 7 m/S 756 mmHg 91%
    13:00 +14°C° 0,3 mm 7 m/S 755 mmHg 89%
    14:00 +14°C° 0,3 mm 7 m/S 755 mmHg 88%
    15:00 +14°C° 0,3 mm 7 m/S 755 mmHg 86%
    16:00 +14°C° 0,2 mm 7 m/S 755 mmHg 86%
    17:00 +13°C° 0,2 mm 6 m/S 755 mmHg 87%
    18:00 +11°C° 0,2 mm 6 m/S 755 mmHg 87%
    19:00 +11°C° 0 mm 7 m/S 755 mmHg 86%
    20:00 +10°C° 0 mm 7 m/S 755 mmHg 85%
    21:00 +10°C° 0 mm 8 m/S 755 mmHg 84%
    22:00 +10°C° 0 mm 8 m/S 755 mmHg 84%
    23:00 +9°C° 0 mm 8 m/S 755 mmHg 83%

    übermorgen, 22 Oktober, Sonntag

    Zeit Temperatur Niederschläge Wind Luftdruck Luftfeuchtigkeit
    00:00 +8°C° 0 mm 9 m/S 755 mmHg 82%
    01:00 +8°C° 0 mm 9 m/S 755 mmHg 82%
    02:00 +7°C° 0 mm 9 m/S 755 mmHg 81%
    03:00 +7°C° 0 mm 9 m/S 754 mmHg 81%
    04:00 +7°C° 0 mm 9 m/S 754 mmHg 81%
    05:00 +7°C° 0 mm 9 m/S 754 mmHg 82%
    06:00 +7°C° 0 mm 9 m/S 755 mmHg 83%
    07:00 +8°C° 0 mm 9 m/S 755 mmHg 81%
    08:00 +8°C° 0 mm 9 m/S 755 mmHg 79%
    09:00 +10°C° 0 mm 9 m/S 755 mmHg 78%
    10:00 +11°C° 0,1 mm 9 m/S 755 mmHg 76%
    11:00 +11°C° 0,1 mm 9 m/S 755 mmHg 74%
    12:00 +11°C° 0,1 mm 9 m/S 755 mmHg 72%
    13:00 +11°C° 0,1 mm 9 m/S 755 mmHg 73%
    14:00 +11°C° 0,1 mm 9 m/S 755 mmHg 74%
    15:00 +10°C° 0,1 mm 9 m/S 755 mmHg 75%
    16:00 +10°C° 0,6 mm 9 m/S 755 mmHg 79%
    17:00 +9°C° 0,6 mm 8 m/S 755 mmHg 83%
    18:00 +9°C° 0,6 mm 8 m/S 756 mmHg 87%
    19:00 +9°C° 1,5 mm 8 m/S 756 mmHg 87%
    20:00 +9°C° 1,5 mm 8 m/S 756 mmHg 88%
    21:00 +9°C° 1,5 mm 7 m/S 756 mmHg 88%
    22:00 +8°C° 0,1 mm 7 m/S 756 mmHg 90%
    23:00 +6°C° 0,1 mm 7 m/S 757 mmHg 92%

    23 Oktober, Montag

    Zeit Temperatur Niederschläge Wind Luftdruck Luftfeuchtigkeit
    00:00 +6°C° 0,1 mm 7 m/S 757 mmHg 93%
    01:00 +6°C° 0 mm 7 m/S 757 mmHg 94%
    02:00 +7°C° 0 mm 6 m/S 757 mmHg 95%
    03:00 +7°C° 0 mm 6 m/S 757 mmHg 95%
    04:00 +7°C° 0,1 mm 6 m/S 758 mmHg 95%
    05:00 +8°C° 0,1 mm 6 m/S 758 mmHg 94%
    06:00 +8°C° 0,1 mm 5 m/S 758 mmHg 94%
    07:00 +9°C° 0,2 mm 5 m/S 759 mmHg 92%
    08:00 +10°C° 0,2 mm 5 m/S 759 mmHg 90%
    09:00 +12°C° 0,2 mm 5 m/S 760 mmHg 87%
    10:00 +13°C° 0,3 mm 5 m/S 760 mmHg 85%
    11:00 +13°C° 0,3 mm 6 m/S 760 mmHg 82%
    12:00 +14°C° 0,3 mm 6 m/S 761 mmHg 79%
    13:00 +14°C° 0,2 mm 6 m/S 761 mmHg 80%
    14:00 +14°C° 0,2 mm 5 m/S 761 mmHg 81%
    15:00 +13°C° 0,2 mm 5 m/S 761 mmHg 82%
    16:00 +12°C° 0 mm 4 m/S 762 mmHg 84%
    17:00 +11°C° 0 mm 4 m/S 762 mmHg 87%
    18:00 +10°C° 0 mm 4 m/S 762 mmHg 89%
    19:00 +10°C° 0 mm 4 m/S 763 mmHg 91%
    20:00 +10°C° 0 mm 4 m/S 763 mmHg 92%
    21:00 +10°C° 0 mm 4 m/S 763 mmHg 94%
    22:00 +8°C° 0 mm 4 m/S 763 mmHg 94%
    23:00 +8°C° 0 mm 4 m/S 763 mmHg 95%

    24 Oktober, Dienstag

    Zeit Temperatur Niederschläge Wind Luftdruck Luftfeuchtigkeit
    00:00 +8°C° 0 mm 4 m/S 763 mmHg 95%
    01:00 +8°C° 0,1 mm 4 m/S 763 mmHg 95%
    02:00 +10°C° 0,1 mm 4 m/S 763 mmHg 95%
    03:00 +10°C° 0,1 mm 4 m/S 763 mmHg 95%
    04:00 +10°C° 0,1 mm 4 m/S 764 mmHg 94%
    05:00 +10°C° 0,1 mm 4 m/S 764 mmHg 94%
    06:00 +10°C° 0,1 mm 4 m/S 764 mmHg 94%
    07:00 +11°C° 0 mm 4 m/S 764 mmHg 93%
    08:00 +11°C° 0 mm 4 m/S 765 mmHg 92%
    09:00 +12°C° 0 mm 4 m/S 765 mmHg 91%
    10:00 +12°C° 0 mm 4 m/S 765 mmHg 90%
    11:00 +13°C° 0 mm 4 m/S 765 mmHg 89%
    12:00 +14°C° 0 mm 4 m/S 766 mmHg 88%
    13:00 +14°C° 0 mm 3 m/S 766 mmHg 89%
    14:00 +14°C° 0 mm 3 m/S 766 mmHg 90%
    15:00 +14°C° 0 mm 3 m/S 766 mmHg 91%
    16:00 +14°C° 0,2 mm 3 m/S 766 mmHg 92%
    17:00 +14°C° 0,2 mm 4 m/S 766 mmHg 93%
    18:00 +14°C° 0,2 mm 4 m/S 766 mmHg 94%
    19:00 +14°C° 0,8 mm 4 m/S 767 mmHg 95%
    20:00 +14°C° 0,8 mm 4 m/S 767 mmHg 95%
    21:00 +14°C° 0,8 mm 5 m/S 767 mmHg 95%
    22:00 +14°C° 0,5 mm 5 m/S 767 mmHg 96%
    23:00 +14°C° 0,5 mm 5 m/S 767 mmHg 96%

    25 Oktober, Mittwoch

    Zeit Temperatur Niederschläge Wind Luftdruck Luftfeuchtigkeit
    00:00 +14°C° 0,5 mm 5 m/S 767 mmHg 96%
    01:00 +14°C° 0,2 mm 4 m/S 767 mmHg 97%
    02:00 +14°C° 0,2 mm 4 m/S 767 mmHg 97%
    03:00 +14°C° 0,2 mm 4 m/S 767 mmHg 97%
    04:00 +14°C° 0 mm 4 m/S 767 mmHg 97%
    05:00 +14°C° 0 mm 4 m/S 768 mmHg 97%
    06:00 +14°C° 0 mm 4 m/S 768 mmHg 97%
    07:00 +15°C° 0 mm 4 m/S 768 mmHg 95%
    08:00 +15°C° 0 mm 5 m/S 768 mmHg 94%
    09:00 +15°C° 0 mm 5 m/S 769 mmHg 93%
    10:00 +16°C° 0 mm 5 m/S 769 mmHg 90%
    11:00 +16°C° 0 mm 5 m/S 769 mmHg 88%
    12:00 +17°C° 0 mm 5 m/S 769 mmHg 86%
    13:00 +18°C° 0 mm 4 m/S 769 mmHg 86%
    14:00 +17°C° 0 mm 4 m/S 769 mmHg 87%
    15:00 +17°C° 0 mm 3 m/S 769 mmHg 88%
    16:00 +17°C° 0 mm 3 m/S 769 mmHg 89%
    17:00 +16°C° 0 mm 3 m/S 769 mmHg 91%
    18:00 +16°C° 0 mm 3 m/S 770 mmHg 92%
    19:00 +14°C° 0 mm 3 m/S 770 mmHg 93%
    20:00 +14°C° 0 mm 3 m/S 770 mmHg 94%
    21:00 +13°C° 0 mm 3 m/S 770 mmHg 94%
    22:00 +13°C° 0 mm 3 m/S 770 mmHg 94%
    23:00 +13°C° 0 mm 3 m/S 771 mmHg 94%
    Mehr zeigen